Glenwood, MN

7:50 PM CDT on May 21, 2018 (GMT -0500)
Glenwood Municipal

Weather History for KGHW - March, 2014

Change the Weather History Date:

Friday, March 28, 2014

  Actual Average Record
Temperature  
Mean Temperature 21 °F -  
Max Temperature 30 °F 45 °F 111 °F (1998)
Min Temperature 12 °F 24 °F -1 °F (1969)
Degree Days  
Heating Degree Days 44    
Moisture  
Dew Point 11 °F    
Average Humidity 62    
Maximum Humidity 86    
Minimum Humidity 40    
Precipitation  
Precipitation 0.00 in - - ()
Sea Level Pressure  
Sea Level Pressure 30.08 in    
Wind  
Wind Speed 8 mph (NNW)    
Max Wind Speed 14 mph    
Max Gust Speed 20 mph    
Visibility 10 miles    
Events      
Averages and records for this station are not official NWS values.
T = Trace of Precipitation, MM = Missing Value Source: NWS Daily Summary

Daily Weather History Graph

Daily Weather History Graph

Search for Another Location

Airport or City:

Astronomy

Mar. 28, 2014 Rise Set
Actual Time 7:08 AM CDT 7:44 PM CDT
Civil Twilight 6:39 AM CDT 8:14 PM CDT
Nautical Twilight 6:03 AM CDT 8:49 PM CDT
Astronomical Twilight 5:27 AM CDT 9:26 PM CDT
Moon 5:47 AM CDT (3/28) 5:36 PM CDT (3/28)
Length of Visible Light 13h 35m
Length of Day
12h 35m
Waning Crescent, 6% of the Moon is Illuminated
Mar 28
Waning Crescent
Mar 30
New
Apr 7
First Quarter
Apr 15
Full
Apr 22
Last Quarter

Hourly Weather History & Observations

Time (CDT) Temp. Windchill Dew Point Humidity Pressure Visibility Wind Dir Wind Speed Gust Speed Precip Events Conditions
12:01 AM 26.6 °F 15.2 °F 19.4 °F 74% 29.83 in 10.0 mi North 13.8 mph 19.6 mph N/A   Overcast
12:21 AM 26.6 °F 17.5 °F 19.4 °F 74% 29.84 in 10.0 mi NNW 9.2 mph - N/A   Scattered Clouds
12:41 AM 24.8 °F 16.1 °F 17.6 °F 74% 29.85 in 10.0 mi NNW 8.1 mph - N/A   Clear
1:01 AM 23.0 °F 13.1 °F 17.6 °F 80% 29.85 in 10.0 mi NNW 9.2 mph - N/A   Clear
1:21 AM 21.2 °F 10.9 °F 17.6 °F 86% 29.87 in 10.0 mi NNW 9.2 mph - N/A   Clear
1:41 AM 21.2 °F 10.1 °F 17.6 °F 86% 29.87 in 10.0 mi NNW 10.4 mph - N/A   Clear
2:01 AM 21.2 °F 9.5 °F 15.8 °F 80% 29.89 in 10.0 mi NW 11.5 mph - N/A   Clear
2:21 AM 21.2 °F 9.5 °F 15.8 °F 80% 29.90 in 10.0 mi NNW 11.5 mph - N/A   Clear
2:41 AM 19.4 °F 7.2 °F 14.0 °F 80% 29.90 in 10.0 mi NNW 11.5 mph - N/A   Clear
3:01 AM 19.4 °F 7.2 °F 14.0 °F 80% 29.91 in 10.0 mi NNW 11.5 mph - N/A   Clear
3:21 AM 19.4 °F 6.6 °F 12.2 °F 74% 29.91 in 10.0 mi NNW 12.7 mph - N/A   Clear
3:41 AM 17.6 °F 5.7 °F 12.2 °F 79% 29.91 in 10.0 mi NNW 10.4 mph - N/A   Clear
4:01 AM 17.6 °F 5.7 °F 12.2 °F 79% 29.92 in 10.0 mi NNW 10.4 mph - N/A   Clear
4:21 AM 17.6 °F 6.4 °F 12.2 °F 79% 29.93 in 10.0 mi NNW 9.2 mph - N/A   Clear
4:41 AM 15.8 °F 6.1 °F 10.4 °F 79% 29.94 in 10.0 mi NNW 6.9 mph - N/A   Clear
5:01 AM 15.8 °F 5.1 °F 10.4 °F 79% 29.95 in 10.0 mi NNW 8.1 mph - N/A   Clear
5:21 AM 15.8 °F 5.1 °F 10.4 °F 79% 29.96 in 10.0 mi NNW 8.1 mph - N/A   Clear
5:41 AM 15.8 °F 4.2 °F 10.4 °F 79% 29.96 in 10.0 mi North 9.2 mph - N/A   Clear
6:01 AM 15.8 °F 5.1 °F 8.6 °F 73% 29.97 in 10.0 mi NNW 8.1 mph - N/A   Clear
6:21 AM 15.8 °F 4.2 °F 8.6 °F 73% 29.98 in 10.0 mi NNW 9.2 mph - N/A   Clear
6:41 AM 14.0 °F 2.9 °F 8.6 °F 79% 29.99 in 10.0 mi NNW 8.1 mph - N/A   Clear
6:55 AM 14.0 °F 2.9 °F 8.6 °F 79% 29.99 in 10.0 mi North 8.1 mph - N/A   Clear
7:13 AM 12.2 °F 2.9 °F 8.6 °F 85% 30.01 in 10.0 mi North 5.8 mph - N/A   Clear
7:33 AM 12.2 °F 0.7 °F 8.6 °F 85% 30.03 in 10.0 mi NNW 8.1 mph - N/A   Clear
7:54 AM 14.0 °F 2.9 °F 8.6 °F 79% 30.03 in 10.0 mi North 8.1 mph - N/A   Clear
8:13 AM 14.0 °F 2.0 °F 8.6 °F 79% 30.03 in 10.0 mi North 9.2 mph - N/A   Clear
8:34 AM 15.8 °F 4.2 °F 8.6 °F 73% 30.04 in 10.0 mi North 9.2 mph - N/A   Clear
8:53 AM 17.6 °F 6.4 °F 8.6 °F 68% 30.05 in 10.0 mi North 9.2 mph - N/A   Clear
9:13 AM 19.4 °F 9.5 °F 8.6 °F 63% 30.05 in 10.0 mi North 8.1 mph - N/A   Clear
9:33 AM 19.4 °F 8.6 °F 8.6 °F 63% 30.06 in 10.0 mi North 9.2 mph - N/A   Clear
9:53 AM 21.2 °F 10.9 °F 10.4 °F 63% 30.07 in 10.0 mi North 9.2 mph - N/A   Clear
10:14 AM 21.2 °F 12.6 °F 8.6 °F 58% 30.09 in 10.0 mi North 6.9 mph - N/A   Clear
10:33 AM 23.0 °F 15.8 °F 8.6 °F 54% 30.09 in 10.0 mi North 5.8 mph - N/A   Clear
10:53 AM 24.8 °F 20.5 °F 8.6 °F 50% 30.12 in 10.0 mi North 3.5 mph - N/A   Clear
11:14 AM 24.8 °F 20.5 °F 10.4 °F 54% 30.13 in 10.0 mi NW 3.5 mph - N/A   Clear
11:33 AM 24.8 °F 17.9 °F 10.4 °F 54% 30.12 in 10.0 mi NNW 5.8 mph - N/A   Clear
11:53 AM 26.6 °F 19.1 °F 10.4 °F 51% 30.12 in 10.0 mi North 6.9 mph - N/A   Clear
12:13 PM 26.6 °F 20.0 °F 12.2 °F 55% 30.13 in 10.0 mi NNW 5.8 mph - N/A   Clear
12:34 PM 28.4 °F 21.2 °F 12.2 °F 51% 30.13 in 10.0 mi North 6.9 mph - N/A   Clear
12:53 PM 28.4 °F 21.2 °F 12.2 °F 51% 30.13 in 10.0 mi North 6.9 mph - N/A   Clear
1:11 PM 28.4 °F 21.2 °F 10.4 °F 47% 30.14 in 10.0 mi North 6.9 mph - N/A   Clear
1:33 PM 30.2 °F 24.3 °F 12.2 °F 47% 30.14 in 10.0 mi NNW 5.8 mph - N/A   Clear
1:53 PM 30.2 °F 22.6 °F 8.6 °F 40% 30.14 in 10.0 mi NNW 8.1 mph - N/A   Clear
2:13 PM 30.2 °F 23.4 °F 10.4 °F 44% 30.14 in 10.0 mi NNW 6.9 mph - N/A   Clear
2:33 PM 30.2 °F 25.4 °F 10.4 °F 44% 30.16 in 10.0 mi NW 4.6 mph - N/A   Clear
2:54 PM 30.2 °F 24.3 °F 10.4 °F 44% 30.17 in 10.0 mi NW 5.8 mph - N/A   Clear
3:13 PM 30.2 °F 25.4 °F 12.2 °F 47% 30.17 in 10.0 mi NW 4.6 mph - N/A   Clear
3:33 PM 30.2 °F 24.3 °F 10.4 °F 44% 30.17 in 10.0 mi NW 5.8 mph - N/A   Clear
3:53 PM 30.2 °F 24.3 °F 8.6 °F 40% 30.17 in 10.0 mi NW 5.8 mph - N/A   Clear
4:13 PM 30.2 °F 23.4 °F 10.4 °F 44% 30.17 in 10.0 mi NW 6.9 mph - N/A   Clear
4:34 PM 30.2 °F 24.3 °F 12.2 °F 47% 30.18 in 10.0 mi NW 5.8 mph - N/A   Clear
4:53 PM 30.2 °F 22.6 °F 12.2 °F 47% 30.18 in 10.0 mi WNW 8.1 mph - N/A   Clear
5:13 PM 30.2 °F 24.3 °F 10.4 °F 44% 30.18 in 10.0 mi NW 5.8 mph - N/A   Clear
5:33 PM 30.2 °F 23.4 °F 12.2 °F 47% 30.18 in 10.0 mi NW 6.9 mph - N/A   Clear
5:53 PM 30.2 °F 24.3 °F 8.6 °F 40% 30.18 in 10.0 mi NNW 5.8 mph - N/A   Mostly Cloudy
6:13 PM 30.2 °F 23.4 °F 10.4 °F 44% 30.18 in 10.0 mi NW 6.9 mph - N/A   Overcast
6:33 PM 30.2 °F 24.3 °F 10.4 °F 44% 30.19 in 10.0 mi NNW 5.8 mph - N/A   Overcast
6:54 PM 30.2 °F 26.7 °F 10.4 °F 44% 30.19 in 10.0 mi NNW 3.5 mph - N/A   Overcast
7:13 PM 28.4 °F 24.6 °F 10.4 °F 47% 30.19 in 10.0 mi NNW 3.5 mph - N/A   Overcast
7:33 PM 26.6 °F - 12.2 °F 55% 30.20 in 10.0 mi Calm Calm - N/A   Overcast
7:36 PM 26.6 °F - 12.2 °F 55% 30.20 in 10.0 mi Calm Calm - N/A   Overcast
8:01 PM 26.6 °F 22.6 °F 12.2 °F 55% 30.20 in 10.0 mi NNW 3.5 mph - N/A   Overcast
8:21 PM 26.6 °F - 14.0 °F 59% 30.20 in 10.0 mi NNW 2.3 mph - N/A   Overcast
8:41 PM 26.6 °F - 15.8 °F 64% 30.21 in 10.0 mi NNW 2.3 mph - N/A   Overcast
9:01 PM 24.8 °F - 14.0 °F 64% 30.21 in 10.0 mi NNW 2.3 mph - N/A   Overcast
9:21 PM 24.8 °F 20.5 °F 14.0 °F 64% 30.22 in 10.0 mi NW 3.5 mph - N/A   Scattered Clouds
9:41 PM 23.0 °F 17.0 °F 12.2 °F 63% 30.22 in 10.0 mi NW 4.6 mph - N/A   Scattered Clouds
10:01 PM 21.2 °F 13.6 °F 10.4 °F 63% 30.23 in 10.0 mi NW 5.8 mph - N/A   Scattered Clouds
10:21 PM 21.2 °F 14.9 °F 10.4 °F 63% 30.23 in 10.0 mi NNW 4.6 mph - N/A   Clear
10:41 PM 23.0 °F 17.0 °F 10.4 °F 59% 30.23 in 10.0 mi NNW 4.6 mph - N/A   Clear
11:01 PM 21.2 °F 16.4 °F 8.6 °F 58% 30.24 in 10.0 mi NNW 3.5 mph - N/A   Clear
11:21 PM 21.2 °F 16.4 °F 8.6 °F 58% 30.24 in 10.0 mi NNW 3.5 mph - N/A   Clear
11:41 PM 21.2 °F - 8.6 °F 58% 30.24 in 10.0 mi NNW 2.3 mph - N/A   Clear